Welcome to the New NWS' Forecast!
Most changes are behind the scenes, but click here for differences you might notice.
Latest weather observations around

Windsor Locks, Bradley International Airport (KBDL)

Using English Units (Switch to International System of Units)
Date/ Time (EST) Wind (mph) Vis. (mi) Weather Sky Cond. Temp (°F) Rel. Humidity Wind Chill (°F) Heat Index (°F) Pressure Precip. (in)
Air Dwpt 6 hour Altimeter (inHg) Sea level (inHg) 1 hr 3 hr 6 hr
Max Min
Nov 19 14:51 Calm 7 Cloudy BKN006 OVC017 38 35     89%     30.05 30.06      
Nov 19 13:51 Calm 8 Cloudy BKN006 OVC040 37 35     92%     30.05 30.06      
Nov 19 13:07 Calm 9 Cloudy BKN006 OVC027 37 34     89%     30.07        
Nov 19 12:51 NNE 3 7 Cloudy SCT006 OVC028 37 34     89% 35   30.07 30.07     0
Nov 19 12:48 NNE 6 7 Cloudy SCT006 OVC028 37 34     87% 33   30.07        
Nov 19 11:51 N 3 6 Fog/Mist BKN005 BKN012 OVC030 36 34     92% 33   30.1 30.1 0    
Nov 19 11:45 N 3 6 Fog/Mist BKN005 OVC012 36 34     93% 33   30.1   0    
Nov 19 11:30 Calm 6 Fog/Mist BKN004 OVC011 36 34     92%     30.11   0    
Nov 19 10:51 Calm 4 Light Rain and Fog/Mist FEW004 BKN012 OVC020 35 34     96%     30.12 30.13 0    
Nov 19 09:51 Calm 4 Light Rain and Fog/Mist FEW005 OVC016 34 33     96%     30.14 30.14 0 0  
Nov 19 08:51 NNW 5 4 Light Rain and Fog/Mist FEW005 OVC016 33 32     96% 29   30.14 30.15 0    
Nov 19 07:51 Calm 7 Light Rain FEW005 OVC017 33 32     96%     30.14 30.15 0    
Nov 19 06:51 N 3 6 Light Rain and Fog/Mist FEW005 OVC024 33 32     96% 30   30.15 30.15 0   0
Nov 19 06:17 N 3 6 Fog/Mist FEW004 BKN022 OVC030 33 32     96% 30   30.15   0    
Nov 19 05:51 N 5 7 Light Rain FEW005 FEW022 OVC030 33 32     96% 29   30.15 30.15 0    
Nov 19 05:23 N 3 6 Fog/Mist FEW007 FEW020 OVC028 33 32     96% 30   30.15   0    
Nov 19 04:51 N 5 6 Light Rain and Fog/Mist FEW009 SCT021 OVC031 33 32     96% 29   30.16 30.17 0    
Nov 19 04:47 N 5 6 Light Rain and Fog/Mist FEW009 SCT021 OVC032 34 30     86% 29   30.16   0    
Nov 19 03:51 N 6 6 Light Rain and Fog/Mist BKN019 OVC035 33 31     92% 28   30.17 30.17 0 0  
Nov 19 03:45 N 5 6 Light Rain and Fog/Mist BKN019 OVC035 34 30     86% 29   30.17   0    
Nov 19 02:51 N 6 9 Light Freezing Rain BKN020 OVC033 32 30     92% 26   30.19 30.19 0    
Nov 19 01:51 NNE 6 10 Light Rain BKN021 OVC036 33 29     85% 28   30.2 30.2 0    
Nov 19 00:51 N 6 10   OVC025 34 26     72% 29   30.21 30.21 0   0
Nov 18 23:51 N 5 10 Cloudy OVC026 35 26     69% 31   30.23 30.24      
Nov 18 22:51 Calm 10 Cloudy OVC026 35 27     72%     30.24 30.25      
Nov 18 21:51 Calm 10 Cloudy BKN024 OVC030 36 26     67%     30.26 30.26      
Nov 18 21:46 Calm 10 Cloudy BKN024 OVC030 36 27     69%     30.26        
Nov 18 20:51 SE 3 10 Cloudy OVC036 36 25     64% 33   30.27 30.28      
Nov 18 19:51 SE 5 10 Cloudy OVC039 36 24     62% 32   30.29 30.29      
Nov 18 18:51 SSE 6 10 Cloudy OVC040 36 23     59% 31   30.3 30.31      
Nov 18 17:51 SSE 6 10 Cloudy BKN039 OVC042 36 23     59% 31   30.31 30.32      
Nov 18 16:51 SSE 7 10 Cloudy BKN050 OVC090 37 23     56% 32   30.31 30.31      
Nov 18 15:51 SE 6 10 Cloudy BKN055 OVC090 37 22     54% 32   30.31 30.32      
Nov 18 14:51 Calm 10 Mostly Cloudy FEW065 BKN090 BKN120 BKN220 38 20     48%     30.3 30.31      
Nov 18 13:51 Calm 10 Mostly Cloudy SCT090 BKN120 BKN250 38 20     48%     30.33 30.33      
Nov 18 12:51 Calm 10 Mostly Cloudy BKN090 BKN130 39 19     44%     30.34 30.34      
Nov 18 11:51 Calm 10 Mostly Cloudy BKN095 BKN120 BKN250 37 18     46%     30.35 30.36      
Nov 18 10:51 WNW 5 10 Mostly Cloudy FEW080 BKN110 BKN250 36 19     50% 32   30.38 30.38      
Nov 18 09:51 NNW 5 10 Cloudy BKN100 BKN150 OVC250 35 18     49% 31   30.4 30.4      
Nov 18 08:51 NW 8 10 Mostly Cloudy SCT095 SCT130 BKN200 BKN250 34 17     50% 27   30.39 30.4      
Nov 18 07:51 NW 8 10 Mostly Cloudy FEW140 BKN200 BKN250 33 17     51% 26   30.39 30.39      
Nov 18 06:51 NNW 8 10 Mostly Cloudy BKN140 BKN160 BKN190 33 17     51% 26   30.37 30.37      
Nov 18 05:51 NW 8 10 Cloudy FEW120 BKN140 OVC190 34 19     54% 27   30.34 30.35      
Nov 18 04:51 NW 7 10 Mostly Cloudy FEW041 BKN200 34 21     59% 28   30.33 30.33      
Nov 18 03:51 NNW 8 10 Mostly Cloudy BKN041 36 22     56% 30   30.31 30.31      
Nov 18 02:51 NW 10 10 Mostly Cloudy BKN041 37 23     56% 30   30.3 30.3      
Nov 18 01:51 WNW 11 10 Mostly Cloudy BKN045 38 24     57% 30   30.29 30.29      
Nov 18 00:51 WNW 8 10 Mostly Cloudy BKN044 38 26     62% 32   30.27 30.27      
Nov 17 23:51 W 9 10 Mostly Cloudy BKN045 39 26     59% 33   30.26 30.26      
Nov 17 22:51 NW 7 10 Mostly Cloudy BKN048 39 27     62% 34   30.24 30.24      
Nov 17 21:51 NW 9 10 Mostly Cloudy SCT040 BKN050 40 28     62% 34   30.23 30.23      
Nov 17 20:51 NNW 6 10 Mostly Cloudy BKN050 41 27     57% 37   30.21 30.22      
Nov 17 19:51 W 6 10 Mostly Cloudy BKN050 40 28     62% 36   30.2 30.2      
Nov 17 18:51 SW 3 10 Mostly Cloudy BKN055 41 27     57% 39   30.19 30.19      
Nov 17 17:51 W 8 10 Mostly Cloudy BKN050 41 27     57% 36   30.16 30.17      
Nov 17 16:51 WNW 10 10 Mostly Cloudy BKN050 42 27     55% 36   30.15 30.16      
Nov 17 15:51 WNW 8 10 Mostly Cloudy BKN050 42 28     57% 37   30.13 30.13      
Nov 17 14:51 W 10 10 Mostly Cloudy BKN050 43 27     53% 37   30.1 30.11      
Nov 17 13:51 W 11 10 Mostly Cloudy BKN050 45 26     47% 39   30.09 30.09      
Nov 17 12:51 W 14 10 Mostly Cloudy BKN050 45 27     49% 39   30.08 30.08      
Nov 17 11:51   10 Mostly Cloudy BKN048 44 28     53%     30.09 30.09      
Nov 17 10:51 W 11 10 Mostly Cloudy FEW040 BKN048 43 30     60% 37   30.09 30.1      
Nov 17 09:51 SW 7 10 Mostly Cloudy FEW040 BKN047 41 31     67% 36   30.09 30.09      
Nov 17 08:51 S 8 10 Mostly Cloudy FEW040 BKN050 39 31     72% 33   30.09 30.09      
Nov 17 07:51 SSE 8 10 Mostly Cloudy FEW040 BKN055 36 31     82% 30   30.06 30.07      
Nov 17 06:51 SW 10 10 Mostly Cloudy BKN038 BKN043 36 30     79% 29   30.03 30.03      
Nov 17 05:51 SW 7 10 Mostly Cloudy SCT044 BKN055 35 29     78% 29   30 30      
Nov 17 04:51 S 5 10 Partly Cloudy SCT044 SCT055 37 30     76% 33   29.97 29.97      
Nov 17 03:51 S 8 10 Mostly Cloudy BKN050 36 30     79% 30   29.94 29.94      
Nov 17 02:51 SW 7 10 Mostly Cloudy FEW038 BKN045 37 31     78% 32   29.92 29.93      
Nov 17 01:51 S 9 10 Cloudy OVC035 37 31     78% 30   29.9 29.9      
Nov 17 00:51 S 7 10 Mostly Cloudy BKN038 BKN050 36 31     82% 30   29.88 29.88      
Nov 16 23:51 S 6 10 Mostly Cloudy BKN040 BKN049 37 31     78% 32   29.86 29.86      
Nov 16 22:51 SSE 8 10 Cloudy BKN043 OVC050 36 32     85% 30   29.84 29.85      
Nov 16 21:51 SSW 6 10 Mostly Cloudy BKN047 35 31     85% 30   29.81 29.82      
Nov 16 20:51 Calm 10 Mostly Clear FEW055 35 31     85%     29.79 29.8      
Nov 16 19:51 S 7 10 Mostly Cloudy BKN050 36 31     82% 30   29.78 29.79      
Nov 16 18:51 SSW 5 10 Partly Cloudy SCT049 36 30     79% 32   29.77 29.77      
Nov 16 17:51 SW 8 10 Mostly Cloudy BKN032 BKN042 37 30     76% 31   29.75 29.75      
Nov 16 16:51 W 10 10 Mostly Cloudy BKN037 BKN050 38 30     73% 31   29.72 29.72      
Nov 16 15:51 WNW 6 10 Mostly Cloudy BKN034 BKN040 39 30     70% 35   29.69 29.69      
Nov 16 14:51   10 Mostly Cloudy BKN034 BKN040 41 29     62%     29.67 29.67      
Nov 16 13:51 W 7 10 Mostly Cloudy FEW029 SCT042 BKN050 42 32     67% 38   29.62 29.62      
Nov 16 12:51 N 8 10 Clear   39 31     72% 33   29.59 29.59     0
Nov 16 11:51 NNW 13 10 Mostly Cloudy FEW015 BKN030 BKN055 37 31     78% 29   29.6 29.6 0    
Nov 16 11:14 NNW 9 7 Light Rain FEW025 BKN030 OVC036 36 31     82% 29   29.58   0    
Nov 16 10:51 NNW 11 10 Cloudy BKN024 OVC030 36 31     82% 28   29.59 29.59      
Nov 16 10:24 NW 13 10 Cloudy BKN015 OVC027 35 31     85% 26   29.58        
Nov 16 10:07 NNW 17 10 Cloudy BKN012 OVC033 35 32     88% 25   29.56        
Nov 16 09:55   10 Mostly Cloudy FEW012 BKN030 BKN036 34 31     88%     29.5        
Nov 16 09:51 N 17 7 Light Rain FEW012 BKN028 OVC035 35 31     85% 25   29.51 29.52   0  
Nov 16 09:26 NNW 16 6 Light Rain and Fog/Mist OVC022 34 31     88% 24   29.55        
Nov 16 08:51 NNW 16 5 Light Rain and and Fog/Mist FEW009 OVC016 34 32     92% 24   29.55 29.55 0    
Nov 16 08:49 NW 14 5 Light Rain and and Fog/Mist FEW009 OVC016 34 32     93% 24   29.55   0    
Nov 16 08:44 NNW 17 5 Light Rain and Fog/Mist SCT009 OVC014 34 31     88% 23   29.54   0    
Nov 16 07:51 N 14 3 Light Rain and Fog/Mist BKN007 BKN013 OVC030 33 32     96% 23   29.51 29.51 0    
Nov 16 07:38 N 13 2.5 Clear   33 32     96% 24   29.52   0    
Nov 16 06:58 N 16 3 Clear   33 32     96% 23   29.54   0    
Nov 16 06:51   2 Clear   33 32     96%     29.54 29.54 0   0
Nov 16 05:51   2 Light Drizzle and Fog/Mist BKN005 OVC011 33 32     96%     29.58 29.58 0    
Nov 16 05:30 N 10 2 Light Rain and Fog/Mist BKN004 OVC009 33 32     96% 25   29.61   0    
Nov 16 04:51 N 14 2 Light Rain and Fog/Mist SCT004 BKN007 OVC018 33 31     92% 23   29.65 29.65 0    
Nov 16 04:40 N 11 2 Light Rain and Fog/Mist SCT004 BKN007 OVC017 33 31     92% 24   29.66   0    
Nov 16 04:23 N 14 2 Light Freezing Rain and Fog/Mist FEW004 BKN007 OVC012 32 31     96% 22   29.67   0    
Nov 16 04:03 N 14 2 Light Freezing Drizzle and Fog/Mist FEW004 BKN008 OVC015 32 31     96% 22   29.68   0    
Nov 16 04:01 N 14 1.75 Light Freezing Drizzle and Fog/Mist FEW004 BKN008 OVC015 32 31     96% 22   29.69   0    
Nov 16 03:51 N 14 1.5 Light and Fog/Mist FEW004 BKN008 OVC015 32 30     92% 22   29.69 29.7 0 0  
Nov 16 02:51 NNE 14 1.75 Light and Fog/Mist BKN006 BKN010 OVC017 32 30     92% 22   29.75 29.75 0    
Nov 16 02:37 NNE 14 1 Light and Fog/Mist BKN006 OVC019 32 30     92% 22   29.76   0    
Nov 16 01:51   1 Light and Fog/Mist FEW006 SCT012 OVC018 32 30     92%     29.84 29.85 0    
Nov 16 01:26 NNE 14 1 and Fog/Mist BKN016 OVC023 31 29     92% 21   29.85   0    
Nov 16 01:23 NNE 14 2.5 and Fog/Mist SCT015 OVC023 31 29     92% 21   29.86   0    
Nov 16 01:12 NNE 13 4 and Fog/Mist BKN019 OVC025 30 29     96% 20   29.88   0    
Nov 16 00:51 N 14 4 Freezing Rain and and Fog/Mist FEW008 OVC017 30 28     92% 19   29.92 29.92 0   1
Nov 16 00:29 N 14 8 Light Freezing Rain FEW007 BKN015 OVC022 29 27     92% 18   29.95   0    
Nov 16 00:19 NNE 14 2 Light Freezing Rain and Fog/Mist SCT007 BKN013 OVC018 29 27     92% 18   29.96   0    
Nov 16 00:14   2 Light Freezing Rain and and Fog/Mist FEW007 SCT013 OVC018 28 27     96%     29.95   0    
Nov 16 00:09   1 Light Freezing Rain and and Fog/Mist SCT007 OVC016 28 27     96%     29.96   0    
Nov 15 23:51   1 Heavy and Snow and Fog/Mist FEW007 SCT013 OVC018 28 26     92%     30 30.01 0    
Nov 15 23:49 NNE 15 1 Heavy and Snow and Fog/Mist FEW007 SCT013 OVC018 28 27     93% 17   30   0    
Nov 15 23:40   1 Light and Fog/Mist SCT007 BKN015 OVC020 27 26     96%     30.01   0    
Nov 15 23:34   0.5 Light and Fog/Mist SCT007 BKN015 OVC020 27 26     96%     30.02   0    
Nov 15 23:22 N 14 0.5 Light and Thunderstorms and Hail and Snow and Fog/Mist SCT007 BKN016 OVC035 27 26     96% 16   30.05   0    
Nov 15 23:08 N 14 0.5 Light and Thunderstorms and Hail and Snow and Fog/Mist BKN007 BKN015 OVC021 27 26     96% 16   30.07   0    
Nov 15 22:51 N 14 0.5 Light Snow and Thunderstorms and Hail and and Fog/Mist SCT008 BKN018 OVC030 27 25     92% 16   30.08 30.09 0    
Nov 15 22:18 N 10 0.25 Heavy Snow and Fog BKN005 OVC010 27 25     92% 17   30.16   0    
Nov 15 22:07 NNE 14 0.12 Heavy Snow and Fog BKN004 OVC010 26 25     96% 14   30.14   0    
Nov 15 21:51 NNE 11 0.25 Heavy Snow and Fog BKN005 OVC012 26 25     96% 16   30.18 30.18 0 0  
Nov 15 21:08 N 9 0.25 Heavy Snow and Fog BKN005 OVC011 26 25     96% 17   30.22   0    
Nov 15 20:51 NNE 10 0.25 Heavy Snow and Fog BKN004 OVC011 26 25     96% 16   30.22 30.23 0    
Nov 15 19:51 NNE 10 0.5 Snow and Fog VV007 26 24     92% 16   30.28 30.29 0    
Nov 15 18:51 N 8 0.5 Snow and Fog BKN006 OVC012 26 24     92% 18   30.33 30.33 0   0
Nov 15 18:13 N 7 0.75 Light Snow and Fog/Mist BKN009 OVC020 26 23     88% 18   30.36   0    
Nov 15 18:00 NNE 8 1 Light Snow BKN010 OVC020 27 20     75% 19   30.36   0    
Nov 15 17:51 5 2 Light Snow BKN014 OVC030 28 16     60% 23   30.36 30.37 0    
Nov 15 17:44 NNW 5 2 Light Snow BKN020 OVC030 29 12     49% 24   30.37   0    
Nov 15 16:51 N 5 10 Cloudy BKN022 BKN130 OVC250 30 10     43% 25   30.38 30.38      
Nov 15 15:51 NNE 8 10 Cloudy BKN023 BKN130 OVC250 29 8     41% 21   30.39 30.4      
Nov 15 15:09 N 5 10 Cloudy BKN027 BKN130 BKN150 OVC250 29 9     42% 24   30.42        
Nov 15 14:51 NNE 7 10 Cloudy FEW030 OVC130 29 9     42% 22   30.42 30.43      
Nov 15 13:51 NNE 5 10 Cloudy FEW035 OVC140 29 9     42% 24   30.48 30.48      
Nov 15 12:51 N 3 10 Cloudy OVC150 28 9     44% 24   30.5 30.5      
Nov 15 11:51 N 5 10 Cloudy OVC160 28 9     44% 23   30.53 30.54      
Nov 15 10:51 NNE 6 10 Cloudy OVC180 27 9     46% 20   30.57 30.58      
Nov 15 09:51 N 7 10 Cloudy OVC200 26 9     48% 18   30.6 30.61      
Nov 15 08:51 NNE 7 10 Cloudy SCT200 OVC240 24 8     50% 16   30.6 30.6      
Nov 15 07:51 NNE 7 10 Cloudy OVC240 24 8     50% 16   30.62 30.63      
Nov 15 06:51 N 6 10 Cloudy OVC240 22 12     65% 14   30.6 30.61      
Nov 15 05:51 N 5 10 Cloudy OVC250 22 12     65% 16   30.6 30.6      
Nov 15 04:51 NNE 5 10 Cloudy OVC250 22 12     65% 16   30.61 30.61      
Nov 15 03:51 NNW 5 10 Cloudy OVC250 23 9     54% 17   30.59 30.6      
Nov 15 02:51 N 5 10 Mostly Cloudy BKN250 23 8     52% 17   30.6 30.6      
Nov 15 01:51 N 5 10 Mostly Cloudy BKN250 24 6     46% 18   30.62 30.62      
Nov 15 00:51 N 8 10 Cloudy OVC250 25 5     42% 16   30.6 30.61      
Nov 14 23:51 N 7 10 Cloudy OVC250 26 4     38% 18   30.58 30.58      
Nov 14 22:51 NNE 7 10 Cloudy FEW220 OVC250 26 6     42% 18   30.59 30.6      
Nov 14 21:51 N 10 10 Cloudy OVC250 27 6     40% 17   30.58 30.59      
Nov 14 20:51 N 5 10 Cloudy OVC250 27 8     44% 21   30.54 30.55      
Nov 14 19:51 NNW 5 10 Cloudy OVC250 28 10     46% 23   30.54 30.54      
Nov 14 18:51 NW 11 10 Cloudy FEW220 OVC250 29 10     45% 19   30.51 30.52      
Nov 14 17:51 NW 11 10 Cloudy BKN220 OVC250 29 10     45% 19   30.5 30.5      
Nov 14 16:51   10 Mostly Cloudy FEW060 BKN200 BKN250 30 9     41%     30.47 30.47      
Nov 14 15:51 NW 20 10 Mostly Cloudy and Windy FEW060 FEW190 BKN220 BKN250 31 7     36% 19   30.45 30.45      
Nov 14 14:51   10 Mostly Cloudy FEW065 FEW200 BKN250 31 7     36%     30.4 30.41      
Nov 14 12:51   10 Mostly Cloudy FEW065 BKN250 33 7     33%     30.38 30.38     0
Nov 14 11:51   10 Mostly Cloudy FEW060 BKN250 33 8     35%     30.38 30.38      
Nov 14 10:51   10 Mostly Cloudy FEW060 FEW200 BKN250 33 8     35%     30.37 30.38      
Nov 14 09:51 WNW 18 10 Mostly Cloudy FEW045 SCT055 BKN200 BKN250 33 12     41% 22   30.34 30.35   0  
Nov 14 08:51   10 Mostly Cloudy SCT040 BKN048 BKN250 32 17     54%     30.33 30.33 0    
Nov 14 07:51   10 Mostly Cloudy BKN045 BKN055 33 19     56%     30.28 30.28      
Nov 14 06:51   10 Mostly Cloudy SCT042 BKN050 BKN250 33 20     58%     30.22 30.23      
Nov 14 05:51 WNW 11 10 Partly Cloudy FEW041 SCT050 SCT250 33 20     58% 24   30.19 30.2      
Nov 14 04:51 WNW 10 10 Mostly Cloudy SCT044 BKN065 BKN250 34 20     56% 26   30.17 30.17      
Nov 14 03:51 W 5 10 Mostly Cloudy FEW043 BKN060 BKN250 32 19     58% 27   30.15 30.15      
Nov 14 02:51 NW 9 10 Mostly Cloudy FEW055 BKN250 32 18     56% 24   30.14 30.14      
Nov 14 01:51 NW 9 10 Mostly Cloudy FEW044 SCT060 BKN250 34 18     51% 27   30.14 30.14      
Nov 14 00:51 NNW 16 10 Mostly Cloudy FEW043 BKN055 BKN250 36 21     54% 26   30.11 30.11      
Nov 13 23:51   10 Cloudy FEW043 SCT055 OVC250 37 23     56%     30.08 30.08      
Nov 13 22:51   10 Cloudy SCT048 BKN060 OVC250 39 25     57%     30.04 30.04      
Nov 13 21:51   10 Mostly Cloudy FEW110 BKN240 39 25     57%     30.01 30.01      
Nov 13 20:51   10 Cloudy SCT110 OVC200 41 27     57%     29.97 29.98      
Nov 13 19:51 NW 13 10 Cloudy BKN032 BKN110 OVC210 42 32     67% 35   29.95 29.95      
Nov 13 18:51 NNW 9 10 Cloudy BKN032 BKN110 OVC210 42 33     70% 37   29.93 29.93     0
Nov 13 18:11 NW 13 10 Cloudy SCT027 BKN110 OVC210 41 34     76% 34   29.91        
Nov 13 17:51   10 Cloudy BKN026 OVC100 42 34     73%     29.9 29.9      
Nov 13 16:51 NW 9 10 Cloudy FEW027 BKN095 BKN180 OVC210 42 35     76% 37   29.88 29.88      
Nov 13 16:40 NNW 14 10 Cloudy SCT027 BKN100 OVC180 42 35     76% 35   29.88        
Nov 13 15:51 NW 11 10 Cloudy FEW006 BKN021 BKN140 OVC200 44 39     82% 38   29.85 29.85   0  
Nov 13 15:28 Calm 10 Cloudy FEW004 BKN021 BKN060 OVC140 43 41     93%     29.82        
Nov 13 14:51 NNE 5 10 Cloudy FEW008 SCT060 BKN140 OVC200 43 42     97% 40   29.81 29.81      
Nov 13 14:15 N 6 10 Cloudy FEW007 SCT018 OVC034 44 42     93% 41   29.8        
Nov 13 13:51 N 8 10 Cloudy BKN007 OVC018 43 42     97% 38   29.8 29.8 0    
Nov 13 12:51 N 10 3 Light Drizzle and Fog/Mist OVC007 44 42     93% 39   29.8 29.8 0   1
Nov 13 12:35 N 13 3 Light Rain and Fog/Mist BKN008 OVC020 43 42     97% 36   29.79   0    
Nov 13 11:51 N 16 2 Light Rain and Fog/Mist BKN005 OVC010 43 41     93% 35   29.81 29.81 0    
Nov 13 10:51   2 Light Rain and Fog/Mist BKN005 OVC016 41 40     96%     29.85 29.85 0    
Nov 13 10:07 N 10 2 Rain and Fog/Mist BKN004 OVC009 40 39     97% 33   29.87   0    
Nov 13 09:51 N 11 2 Heavy Rain and Fog/Mist BKN005 OVC011 40 39     97% 33   29.88 29.88 0 0  
Nov 13 08:51 N 5 2 Rain and Fog/Mist BKN005 OVC009 39 38     96% 36   29.95 29.96 0    
Nov 13 07:51 N 5 2 Rain and Fog/Mist FEW004 BKN007 OVC011 39 38     96% 36   30.02 30.02 0    
Nov 13 06:59 N 7 2 Rain and Fog/Mist SCT004 BKN007 OVC015 39 38     96% 34   30.04   0    
Nov 13 06:51 N 6 2 Rain and Fog/Mist BKN004 BKN009 OVC015 39 38     96% 35   30.04 30.05 0   1
Nov 13 06:39 NNW 6 2 Rain and Fog/Mist BKN004 OVC008 39 38     96% 35   30.05   0    
Nov 13 06:04 N 5 3 Rain and Fog/Mist BKN004 OVC008 39 38     96% 36   30.07   0    
Nov 13 05:51 N 6 1.5 Rain and Fog/Mist BKN003 OVC008 39 38     96% 35   30.08 30.08 0    
Nov 13 05:48 NNW 7 1.5 Light Rain and Fog/Mist BKN003 OVC008 39 37     93% 34   30.08   0    
Nov 13 05:25 N 5 1.5 Rain and Fog/Mist SCT003 OVC006 39 38     96% 36   30.09   0    
Nov 13 04:51 N 8 3 Rain and Fog/Mist SCT003 BKN005 OVC010 39 38     96% 33   30.12 30.12 0    
Nov 13 04:45 NNW 7 3 Rain and Fog/Mist BKN003 OVC010 39 37     93% 34   30.13   0    
Nov 13 04:34 N 8 3 Rain and Fog/Mist FEW003 BKN006 OVC011 39 38     96% 33   30.13   0    
Nov 13 04:03 N 6 3 Light Rain and Fog/Mist FEW005 OVC013 39 37     93% 35   30.16   0    
Nov 13 03:51 N 7 3 Rain and Fog/Mist FEW006 OVC015 39 38     96% 34   30.17 30.17 0 0  
Nov 13 03:03 N 6 5 Light Rain and Fog/Mist SCT009 OVC021 39 37     93% 35   30.21   0    
Nov 13 02:51 N 6 5 Light Rain and Fog/Mist BKN009 OVC025 39 37     93% 35   30.22 30.22 0    
Nov 13 02:43 NNE 6 5 Light Rain and Fog/Mist BKN009 OVC025 39 37     93% 35   30.22   0    
Nov 13 02:14 NW 3 5 Light Rain and Fog/Mist BKN010 BKN016 OVC025 39 37     93% 37   30.24   0    
Nov 13 01:57 Calm 6 Light Rain and Fog/Mist BKN016 BKN034 OVC050 38 37     97%     30.24   0    
Nov 13 01:51 Calm 6 Light Rain and Fog/Mist SCT016 BKN037 OVC050 38 37     97%     30.24 30.24 0    
Nov 13 01:10 NNE 3 6 Light Rain and Fog/Mist SCT017 BKN030 OVC040 39 37     93% 37   30.27   0    
Nov 13 00:51 Calm 6 Rain and Fog/Mist OVC017 39 37     93%     30.29 30.29 0   0
Nov 13 00:31 Calm 7 Light Rain BKN018 BKN035 OVC050 39 36     89%     30.3   0    
Nov 13 00:12 NW 3 10 Light Rain SCT022 BKN031 OVC047 39 35     86% 37   30.31   0    
Nov 12 23:51 WNW 3 10 Light Rain BKN027 OVC048 40 34     79% 38   30.31 30.31 0    
Nov 12 23:13 Calm 10 Cloudy BKN029 OVC045 41 32     70%     30.32        
Nov 12 22:51 Calm 10 Cloudy SCT028 BKN045 OVC110 40 32     73%     30.33 30.33      
Nov 12 21:51 Calm 10 Cloudy BKN120 OVC250 42 31     64%     30.33 30.34      
Nov 12 20:51 Calm 10 Cloudy BKN120 OVC250 41 31     67%     30.37 30.37      
Nov 12 19:51 S 7 10 Cloudy FEW110 OVC250 41 31     67% 36   30.36 30.36      
Nov 12 18:51 SSE 8 10 Mostly Cloudy FEW110 BKN220 40 29     65% 34   30.36 30.36      
Nov 12 17:51 SSE 5 10 Mostly Cloudy FEW110 BKN240 42 28     57% 39   30.38 30.38      
Nov 12 16:51 S 7 10 Cloudy FEW110 FEW210 OVC250 44 26     49% 40   30.39 30.39      
Nov 12 15:51 S 11 10 Cloudy FEW200 OVC250 47 26     44% 42   30.36 30.37      
Nov 12 14:51 SSW 9 10 Cloudy FEW200 OVC250 49 25     39% 45   30.36 30.36      
Nov 12 13:51 S 7 10 Cloudy OVC250 49 25     39% 46   30.35 30.35      
Nov 12 12:51 S 6 10 Mostly Cloudy BKN250 49 26     41% 46   30.37 30.37      
Nov 12 11:51 SW 7 10 Mostly Cloudy BKN250 48 27     44% 45   30.4 30.4      
Nov 12 10:51 S 8 10 Mostly Cloudy FEW080 BKN250 44 29     55% 40   30.43 30.43      
Nov 12 09:51 SSE 5 10 Mostly Cloudy FEW080 BKN250 38 26     62% 34   30.44 30.44      
Nov 12 08:51 Calm 10 Mostly Clear FEW250 33 27     78%     30.43 30.44      
Nov 12 07:51 Calm 10 Clear CLR 29 25     85%     30.43 30.43      
Nov 12 06:51 Calm 10 Mostly Clear FEW080 25 23     92%     30.42 30.42      
Nov 12 05:51 Calm 10 Clear CLR 25 22     88%     30.41 30.42      
Nov 12 04:51 Calm 10 Clear CLR 25 22     88%     30.4 30.41      
Nov 12 03:51 Calm 10 Clear CLR 26 22     84%     30.4 30.4      
Nov 12 02:51 Calm 10 Mostly Clear FEW250 25 22     88%     30.39 30.4      
Nov 12 01:51 Calm 10 Mostly Clear FEW250 26 22     84%     30.39 30.4      
Nov 12 00:51 Calm 10 Clear CLR 28 24     85%     30.38 30.39      
Nov 11 23:51 W 7 10 Clear CLR 27 21     78% 19   30.37 30.38      
Nov 11 22:51 WSW 5 10 Mostly Clear FEW220 29 22     75% 24   30.37 30.37      
Nov 11 21:51 Calm 10 Mostly Clear FEW220 33 21     61%     30.37 30.38      
Nov 11 20:51 NW 3 10 Mostly Clear FEW220 34 20     56% 31   30.36 30.36      
Nov 11 19:51 N 5 10 Partly Cloudy SCT220 34 20     56% 30   30.35 30.36      
Nov 11 18:51 NW 6 10 Mostly Clear FEW220 34 20     56% 29   30.34 30.35      
Nov 11 17:51 NNW 3 10 Mostly Clear FEW220 36 20     52% 33   30.33 30.33      
Nov 11 16:51 NW 6 10 Mostly Clear FEW110 38 20     48% 33   30.31 30.31      
Nov 11 15:51 NNW 8 10 Mostly Clear FEW050 FEW200 41 20     43% 36   30.29 30.3      
Nov 11 14:51 WNW 15 10 Mostly Clear FEW050 43 19     38% 36   30.28 30.29      
Nov 11 13:51 WNW 16 10 Mostly Clear FEW055 43 19     38% 35   30.29 30.29      
Nov 11 12:51 NNW 15 10 Partly Cloudy SCT050 42 20     41% 35   30.28 30.29      
Nov 11 11:51 WNW 13 10 Partly Cloudy SCT048 44 21     40% 38   30.29 30.29      
Nov 11 10:51 NW 16 10 Mostly Cloudy BKN046 BKN050 43 21     41% 35   30.3 30.3      
Nov 11 09:51   10 Mostly Cloudy BKN044 BKN055 39 22     50%     30.31 30.31      
Nov 11 08:51 WSW 6 10 Mostly Cloudy BKN045 38 24     57% 33   30.31 30.31      
Nov 11 07:51 W 6 10 Mostly Cloudy BKN047 BKN055 36 24     62% 31   30.3 30.3      
Nov 11 06:51 W 9 10 Mostly Cloudy FEW044 BKN050 34 24     67% 27   30.28 30.28      
Nov 11 05:51 W 6 10 Mostly Cloudy FEW040 BKN046 34 23     64% 29   30.25 30.26      
Nov 11 04:51 WNW 11 10 Mostly Cloudy FEW043 BKN050 35 24     64% 27   30.25 30.25      
Nov 11 03:51 WNW 3 10 Mostly Cloudy FEW040 BKN050 34 23     64% 31   30.23 30.23      
Nov 11 02:51 W 6 10 Mostly Cloudy BKN046 33 23     66% 28   30.2 30.21      
Nov 11 01:51 Calm 10 Mostly Clear FEW049 33 21     61%     30.19 30.19      
Nov 11 00:51 W 8 10 Mostly Clear FEW048 34 21     59% 27   30.15 30.15      
Nov 10 23:51 W 10 10 Mostly Clear FEW050 34 22     61% 26   30.13 30.13      
Nov 10 22:51 W 13 10 Mostly Clear FEW050 35 21     56% 26   30.11 30.11      
Nov 10 21:51 W 11 10 Mostly Clear FEW049 33 19     56% 24   30.1 30.1      
Nov 10 20:51 SW 5 10 Clear CLR 32 18     56% 27   30.08 30.08      
Nov 10 19:51 W 11 10 Clear CLR 34 17     50% 26   30.07 30.07      
Nov 10 18:51 W 11 10 Clear CLR 35 16     45% 27   30.06 30.06      
Nov 10 17:51 W 10 10 Mostly Clear FEW060 36 15     42% 29   30.04 30.04      
Nov 10 16:51 W 16 10 Mostly Clear FEW070 37 16     42% 28   30 30.01      
Nov 10 15:51   10 Partly Cloudy FEW070 SCT085 39 17     41%     29.98 29.98      
Nov 10 14:51   10 Partly Cloudy FEW040 SCT085 43 15     32%     29.92 29.92      
Nov 10 13:51   10 Mostly Cloudy FEW040 SCT060 BKN085 41 18     39%     29.9 29.9      
Nov 10 12:51   10 Mostly Cloudy SCT035 BKN055 BKN080 42 24     49%     29.86 29.86     0
Nov 10 11:51   10 Mostly Cloudy SCT029 BKN055 BKN080 41 28     60%     29.84 29.84 0    
Nov 10 10:51   10 Mostly Cloudy FEW025 SCT036 BKN045 47 30     52%     29.81 29.81      
Nov 10 09:51 WNW 14 10 Mostly Cloudy FEW020 BKN036 BKN060 45 34     65% 39   29.8 29.8      
Nov 10 08:51   10 Mostly Cloudy FEW018 SCT025 BKN046 46 37     71%     29.78 29.78      
Nov 10 07:51 W 3 10 Cloudy FEW025 SCT035 OVC050 46 43     89% 45   29.77 29.77      
Nov 10 06:51 WSW 3 10 Mostly Cloudy FEW023 BKN035 BKN042 45 43     93% 44   29.76 29.76     0
Nov 10 06:44 W 3 10 Cloudy SCT025 BKN031 OVC042 45 42     90% 44   29.76        
Nov 10 05:51 WNW 6 10 Cloudy OVC017 45 43     93% 42   29.74 29.75 0    
Nov 10 04:51 WNW 8 3 Light Drizzle FEW006 OVC016 44 43     96% 40   29.75 29.75 0    
Nov 10 04:38 NNW 7 3 Light Drizzle and Fog/Mist SCT012 BKN017 OVC036 44 43     96% 40   29.74   0    
Nov 10 03:51 NNW 8 3 Light Drizzle and Fog/Mist FEW006 BKN012 OVC036 44 43     96% 40   29.72 29.72 0 0  
Nov 10 02:51 N 10 2.5 Light Drizzle and Fog/Mist FEW004 BKN011 OVC033 43 42     97% 37   29.72 29.72 0    
Nov 10 02:21 NNW 9 2.5 Light Drizzle and Fog/Mist FEW006 BKN012 OVC018 43 42     97% 38   29.75   0    
Nov 10 01:51 NNW 10 5 Light Drizzle and Fog/Mist FEW006 BKN012 OVC017 43 42     97% 37   29.75 29.75 0    
Nov 10 01:36 N 11 3 Light Drizzle and Fog/Mist FEW006 BKN012 OVC021 43 42     97% 37   29.74   0    
May 15 09:43 S 10 2 Haze OVC005 65 60     84%     29.86        
May 14 11:51 7 10 Mostly Cloudy BKN022 62 52     70%     30 30      
May 13 20:00 SSW 8 10 Cloudy BKN014 OVC100 54 49     83%     30.1        
May 13 17:51 SW 9 10 Mostly Cloudy FEW025 SCT110 BKN130 57 48     72%     30.1 30.1      
Jun 10 10:51 SSW 9 10 Mostly Cloudy FEW070 SCT095 BKN250 80 53     39%   80 29.97 29.97      
Jun 07 15:51 6 10 Mostly Clear FEW060 FEW080 74 45     36%   73 29.95 29.94      
Jun 07 09:51 N 10 10 Mostly Cloudy FEW020 BKN055 58 49     72%     29.99 29.99